Location: Brivio
(45.7333°N, 9.4500°E)
Time: 20:05:40
(UTC+00:00)

Cosmos 1908 - Pass Details

Date: 18 October 2019
Orbit: 511 x 532 km, 82.5° (Epoch: 13 November)

Event Time Altitude Azimuth Distance (km) Brightness Sun altitude
Rises 17:34:27 0° 177° (S) 2,662 6.8 -11.6°
Reaches altitude 10° 17:36:37 10° 172° (S) 1,775 5.9 -12.0°
Maximum altitude 17:40:26 55° 95° (E) 646 3.3 -12.7°
Drops below altitude 10° 17:44:15 10° 18° (NNE) 1,781 5.7 -13.4°
Sets 17:46:26 0° 14° (NNE) 2,672 6.7 -13.7°
